TimeAST,TemperatureF,Dew PointF,Humidity,Sea Level PressureIn,VisibilityMPH,Wind Direction,Wind SpeedMPH,Gust SpeedMPH,PrecipitationIn,Events,Conditions,WindDirDegrees,DateUTC
12:00 AM,77.0,71.6,83,29.92,6.2,ESE,10.4,-,N/A,,Partly Cloudy,110,2013-02-17 04:00:00
1:00 AM,77.0,69.8,78,29.92,6.2,ESE,10.4,-,N/A,,Partly Cloudy,120,2013-02-17 05:00:00
2:00 AM,78,70,69,29.91,19,ESE,10.4,,,,Partly Cloudy,120,2013-02-17 06:00:00
2:00 AM,77.0,69.8,78,29.89,6.2,ESE,10.4,-,N/A,,Partly Cloudy,120,2013-02-17 06:00:00
3:00 AM,77.0,69.8,78,29.89,6.2,ESE,10.4,-,N/A,,Partly Cloudy,120,2013-02-17 07:00:00
4:00 AM,78.8,71.6,78,29.89,6.2,East,15.0,-,N/A,,Scattered Clouds,100,2013-02-17 08:00:00
5:00 AM,78,71,75,29.89,19,ESE,12.7,,,,Partly Cloudy,110,2013-02-17 09:00:00
5:00 AM,78.8,71.6,78,29.89,6.2,ESE,12.7,-,N/A,,Scattered Clouds,110,2013-02-17 09:00:00
6:00 AM,77.0,69.8,78,29.89,6.2,ESE,13.8,-,N/A,,Partly Cloudy,110,2013-02-17 10:00:00
7:00 AM,78.8,69.8,74,29.92,6.2,ESE,13.8,-,N/A,,Partly Cloudy,110,2013-02-17 11:00:00
8:00 AM,80,70,65,29.96,16,ESE,12.7,,,,Scattered Clouds,110,2013-02-17 12:00:00
8:00 AM,80.6,69.8,70,29.95,6.2,ESE,12.7,-,N/A,,Partly Cloudy,110,2013-02-17 12:00:00
9:00 AM,82.4,71.6,70,29.98,6.2,East,16.1,-,N/A,,Partly Cloudy,100,2013-02-17 13:00:00
10:00 AM,84.2,71.6,66,29.98,6.2,East,13.8,-,N/A,,Scattered Clouds,100,2013-02-17 14:00:00
11:00 AM,85,72,58,29.99,16,East,15.0,,,,Partly Cloudy,100,2013-02-17 15:00:00
11:00 AM,86.0,71.6,62,29.98,6.2,East,15.0,-,N/A,,Scattered Clouds,100,2013-02-17 15:00:00
12:00 PM,86.0,71.6,62,29.98,6.2,East,16.1,-,N/A,,Partly Cloudy,100,2013-02-17 16:00:00
1:00 PM,86.0,69.8,58,29.95,6.2,East,16.1,-,N/A,,Partly Cloudy,100,2013-02-17 17:00:00
2:00 PM,85,71,55,29.93,16,ESE,19.6,,,,Partly Cloudy,110,2013-02-17 18:00:00
2:00 PM,84.2,71.6,66,29.92,6.2,East,16.1,-,N/A,,Scattered Clouds,100,2013-02-17 18:00:00
3:00 PM,82.4,71.6,70,29.89,6.2,East,13.8,-,N/A,,Scattered Clouds,90,2013-02-17 19:00:00
4:00 PM,84.2,71.6,66,29.86,6.2,East,13.8,-,N/A,,Scattered Clouds,100,2013-02-17 20:00:00
5:00 PM,83,72,61,29.88,16,ESE,15.0,,,,Partly Cloudy,110,2013-02-17 21:00:00
5:00 PM,84.2,71.6,66,29.86,6.2,East,13.8,-,N/A,,Scattered Clouds,100,2013-02-17 21:00:00
6:00 PM,80.6,71.6,74,29.89,6.2,ESE,13.8,-,N/A,,Scattered Clouds,110,2013-02-17 22:00:00
7:00 PM,78.8,71.6,78,29.89,6.2,ESE,12.7,-,N/A,,Scattered Clouds,110,2013-02-17 23:00:00
8:00 PM,79,71,70,29.91,16,East,13.8,,,,,100,2013-02-18 00:00:00
8:00 PM,78.8,69.8,74,29.89,6.2,East,13.8,-,N/A,,Scattered Clouds,100,2013-02-18 00:00:00
9:00 PM,78.8,71.6,78,29.92,6.2,East,13.8,-,N/A,,Scattered Clouds,100,2013-02-18 01:00:00
10:00 PM,78.8,71.6,78,29.92,6.2,East,13.8,-,N/A,,Scattered Clouds,100,2013-02-18 02:00:00
11:00 PM,79,72,72,29.96,16,East,12.7,,,,Partly Cloudy,90,2013-02-18 03:00:00
11:00 PM,78.8,71.6,78,29.95,6.2,East,12.7,-,N/A,,Scattered Clouds,100,2013-02-18 03:00:00